Date String (YYYY-MM-DD hh:mm:ss) UTC,Instrument flags,Ambient pressure (hPa),Sample flow (lpm),Bypass flow (lpm),Sample temperature (°C),Ambient temperature (°C),ASC tube jacket temperature (°C),LED temperature (°C),Box temperature (°C),Sample RH (%),Span deviation,Mass concentration (μg/m³),Mass concentration (μg/m³),Mass concentration (μg/m³)
DateTimeUTC,F1_M11,P_M11,Q1_M11,Q2_M11,T1_M11,T2_M11,T3_M11,T4_M11,T5_M11,U1_M11,ZSPAN_M11,X0_M11,X2_M11,X1_M11
2022-01-10 08:00:00,,0838.3,5.00,0.00,22.3,21.8,00.0,31.4,24.0,05.8,0000.0,0000.96,0000.70,0000.61
2022-01-10 08:01:00,,0838.3,5.01,0.00,22.3,21.7,00.0,31.4,24.0,05.8,0000.0,0000.99,0000.73,0000.63
2022-01-10 08:02:00,,0838.3,4.99,0.00,22.3,21.6,00.0,31.4,23.9,05.8,0000.0,0001.06,0000.78,0000.65
2022-01-10 08:03:00,,0838.2,5.00,0.00,22.3,21.5,00.0,31.4,23.9,05.8,0000.0,0001.02,0000.78,0000.67
2022-01-10 08:04:00,,0838.1,5.00,0.00,22.2,21.5,00.0,31.3,23.9,05.8,0000.0,0001.00,0000.77,0000.67
2022-01-10 08:05:00,,0838.2,5.01,0.00,22.2,21.5,00.0,31.3,23.9,05.8,0000.0,0001.04,0000.78,0000.66
2022-01-10 08:06:00,,0838.1,5.00,0.00,22.2,21.4,00.0,31.3,23.8,05.8,0000.0,0000.97,0000.76,0000.65
2022-01-10 08:07:00,,0838.1,5.02,0.00,22.2,21.4,00.0,31.3,23.8,05.8,0000.0,0001.01,0000.80,0000.68
2022-01-10 08:08:00,,0838.1,5.00,0.00,22.2,21.4,00.0,31.3,23.8,05.8,0000.0,0001.05,0000.82,0000.69
2022-01-10 08:09:00,,0838.2,5.00,0.00,22.2,21.8,00.0,31.3,23.9,05.8,0000.0,0001.09,0000.85,0000.72
2022-01-10 08:10:00,,0838.2,5.00,0.00,22.3,22.6,00.0,31.3,24.2,05.7,0000.0,0001.10,0000.86,0000.73
2022-01-10 08:11:00,,0838.2,5.01,0.00,22.5,23.1,00.0,31.4,24.4,05.7,0000.0,0001.14,0000.88,0000.74
2022-01-10 08:12:00,,0838.2,5.01,0.00,22.5,23.0,00.0,31.4,24.5,05.6,0000.0,0001.12,0000.88,0000.76
2022-01-10 08:13:00,,0838.1,5.00,0.00,22.5,22.7,00.0,31.4,24.4,05.6,0000.0,0001.11,0000.88,0000.77
2022-01-10 08:14:00,,0838.1,5.00,0.00,22.5,22.5,00.0,31.4,24.3,05.6,0000.0,0001.08,0000.86,0000.76
2022-01-10 08:15:00,,0838.2,5.00,0.00,22.5,22.3,00.0,31.4,24.3,05.5,0000.0,0001.08,0000.85,0000.74
2022-01-10 08:16:00,,0838.1,4.99,0.00,22.5,22.1,00.0,31.4,24.2,05.6,0000.0,0001.05,0000.84,0000.74
2022-01-10 08:17:00,,0838.1,5.00,0.00,22.4,22.0,00.0,31.4,24.1,05.9,0000.0,0001.03,0000.82,0000.72
2022-01-10 08:18:00,,0838.1,5.00,0.00,22.4,21.9,00.0,31.4,24.1,05.9,0000.0,0000.95,0000.77,0000.69
2022-01-10 08:19:00,,0838.1,5.00,0.00,22.4,21.8,00.0,31.4,24.1,06.0,0000.0,0000.86,0000.70,0000.64
2022-01-10 08:20:00,,0838.1,4.99,0.00,22.4,21.7,00.0,31.4,24.0,05.9,0000.0,0000.78,0000.64,0000.58
2022-01-10 08:21:00,,0838.1,5.00,0.00,22.3,21.7,00.0,31.4,24.0,05.8,0000.0,0000.77,0000.60,0000.52
2022-01-10 08:22:00,,0838.2,5.00,0.00,22.3,21.6,00.0,31.4,24.0,05.9,0000.0,0000.69,0000.54,0000.47
2022-01-10 08:23:00,,0838.1,5.00,0.00,22.3,21.6,00.0,31.4,23.9,05.9,0000.0,0000.64,0000.49,0000.42
2022-01-10 08:24:00,,0838.1,5.00,0.00,22.3,21.6,00.0,31.4,23.9,06.0,0000.0,0000.55,0000.42,0000.37
2022-01-10 08:25:00,,0838.1,5.00,0.00,22.2,21.5,00.0,31.4,23.9,06.0,0000.0,0000.50,0000.38,0000.33
2022-01-10 08:26:00,,0838.2,4.99,0.00,22.2,21.5,00.0,31.3,23.9,06.0,0000.0,0000.47,0000.35,0000.30
2022-01-10 08:27:00,,0838.1,5.00,0.00,22.2,21.4,00.0,31.3,23.8,06.1,0000.0,0000.41,0000.30,0000.27
2022-01-10 08:28:00,,0838.1,5.00,0.00,22.2,21.4,00.0,31.3,23.8,06.2,0000.0,0000.39,0000.28,0000.25
2022-01-10 08:29:00,,0838.1,4.99,0.00,22.2,21.4,00.0,31.3,23.8,06.1,0000.0,0000.41,0000.28,0000.24
2022-01-10 08:30:00,,0838.1,5.00,0.00,22.2,22.0,00.0,31.3,24.0,06.0,0000.0,0000.42,0000.29,0000.25
2022-01-10 08:31:00,,0838.1,5.01,0.00,22.3,22.8,00.0,31.4,24.2,06.1,0000.0,0000.41,0000.28,0000.24
2022-01-10 08:32:00,,0838.1,4.99,0.00,22.5,23.2,00.0,31.4,24.4,06.0,0000.0,0000.38,0000.27,0000.24
2022-01-10 08:33:00,,0838.1,5.00,0.00,22.5,23.0,00.0,31.4,24.4,05.9,0000.0,0000.36,0000.26,0000.23
2022-01-10 08:34:00,,0838.1,4.99,0.00,22.5,22.7,00.0,31.4,24.3,05.8,0000.0,0000.41,0000.27,0000.23
2022-01-10 08:35:00,,0838.1,5.00,0.00,22.5,22.5,00.0,31.4,24.3,05.8,0000.0,0000.44,0000.27,0000.23
2022-01-10 08:36:00,,0838.1,5.00,0.00,22.5,22.3,00.0,31.4,24.2,05.7,0000.0,0000.45,0000.27,0000.23
2022-01-10 08:37:00,,0838.1,5.00,0.00,22.5,22.1,00.0,31.4,24.2,05.7,0000.0,0000.45,0000.27,0000.22
2022-01-10 08:38:00,,0838.1,5.00,0.00,22.4,22.0,00.0,31.4,24.1,06.0,0000.0,0000.44,0000.27,0000.22
2022-01-10 08:39:00,,0838.1,4.99,0.00,22.4,21.9,00.0,31.4,24.1,06.0,0000.0,0000.44,0000.27,0000.22
2022-01-10 08:40:00,,0838.2,5.01,0.00,22.4,21.8,00.0,31.4,24.0,06.0,0000.0,0000.42,0000.27,0000.23
2022-01-10 08:41:00,,0838.2,4.99,0.00,22.3,21.7,00.0,31.4,24.0,05.9,0000.0,0000.41,0000.26,0000.22
2022-01-10 08:42:00,,0838.2,5.01,0.00,22.3,21.6,00.0,31.4,23.9,06.0,0000.0,0000.41,0000.26,0000.22
2022-01-10 08:43:00,,0838.3,4.98,0.00,22.3,21.5,00.0,31.4,23.9,06.0,0000.0,0000.39,0000.25,0000.22
2022-01-10 08:44:00,,0838.3,5.01,0.00,22.3,21.5,00.0,31.4,23.9,06.0,0000.0,0000.39,0000.25,0000.22
2022-01-10 08:45:00,,0838.3,4.99,0.00,22.2,21.4,00.0,31.4,23.9,06.0,0000.0,0000.32,0000.24,0000.22
2022-01-10 08:46:00,,0838.3,4.99,0.00,22.2,21.4,00.0,31.4,23.9,06.0,0000.0,0000.30,0000.24,0000.22
2022-01-10 08:47:00,,0838.3,5.00,0.00,22.2,21.4,00.0,31.3,23.8,06.0,0000.0,0000.29,0000.24,0000.22
2022-01-10 08:48:00,,0838.3,5.01,0.00,22.1,21.3,00.0,31.3,23.8,06.1,0000.0,0000.29,0000.24,0000.23
2022-01-10 08:49:00,,0838.4,5.00,0.00,22.1,21.4,00.0,31.3,23.8,06.0,0000.0,0000.30,0000.24,0000.23
2022-01-10 08:50:00,,0838.4,5.01,0.00,22.2,22.2,00.0,31.3,24.0,06.0,0000.0,0000.29,0000.24,0000.23
2022-01-10 08:51:00,,0838.4,5.00,0.00,22.4,22.9,00.0,31.4,24.3,06.1,0000.0,0000.28,0000.23,0000.22
2022-01-10 08:52:00,,0838.4,4.99,0.00,22.5,23.0,00.0,31.4,24.4,06.5,0000.0,0000.29,0000.23,0000.21
2022-01-10 08:53:00,,0838.4,5.00,0.00,22.5,22.8,00.0,31.4,24.4,06.2,0000.0,0000.28,0000.22,0000.21
2022-01-10 08:54:00,,0838.4,4.99,0.00,22.5,22.6,00.0,31.4,24.3,06.0,0000.0,0000.28,0000.22,0000.21
2022-01-10 08:55:00,,0838.4,5.00,0.00,22.5,22.4,00.0,31.4,24.2,06.0,0000.0,0000.28,0000.23,0000.21
2022-01-10 08:56:00,,0838.4,5.00,0.00,22.5,22.2,00.0,31.4,24.2,06.0,0000.0,0000.27,0000.21,0000.20
2022-01-10 08:57:00,,0838.4,5.01,0.00,22.4,22.0,00.0,31.4,24.1,06.0,0000.0,0000.26,0000.21,0000.20
2022-01-10 08:58:00,,0838.4,5.00,0.00,22.4,21.9,00.0,31.4,24.1,06.1,0000.0,0000.26,0000.21,0000.20
2022-01-10 08:59:00,,0838.3,5.00,0.00,22.4,21.8,00.0,31.4,24.1,06.1,0000.0,0000.26,0000.21,0000.20
